AirNav   Air Wisconsin pilot careers
 
 323 users online  

3T2 Wolfe Air Park
Manvel, Texas, USA

GOING TO MANVEL?


FAA INFORMATION EFFECTIVE 04 JANUARY 2018

Location

FAA Identifier: 3T2
Lat/Long: 29-28-44.7000N / 095-19-35.6000W
29-28.745000N / 095-19.593333W
29.4790833 / -95.3265556
(estimated)
Elevation: 55 ft. / 17 m (estimated)
Variation: 06E (1985)
From city: 2 miles NE of MANVEL, TX
Time zone: UTC -6 (UTC -5 during Daylight Saving Time)
Zip code: 77578

Airport Operations

Airport use: Open to the public
Activation date: 01/1981
Control tower: no
ARTCC: HOUSTON CENTER
FSS: MONTGOMERY COUNTY FLIGHT SERVICE STATION
FOR FP FILING CALL CXO FSS 1-800-992-7433.
NOTAMs facility: CXO (NOTAM-D service available)
Attendance: DAYLIGHT HOURS
Wind indicator: yes
Segmented circle: no

Airport Communications

CTAF: 122.9
WX ASOS at LVJ (5 nm NE): 118.525 (281-992-1853)
WX AWOS-3 at AXH (8 nm W): 123.625 (281-431-6572)
WX ASOS at HOU (10 nm N): PHONE 713-847-1462
WX ASOS at SGR (19 nm NW): 118.125 (281-242-7605)

Nearby radio navigation aids

VOR radial/distance  VOR name  Freq  Var
HUBr189/10.9HOBBY VOR/DME117.1005E
VUHr292/27.1SCHOLES VOR/DME113.0006E
IAHr173/28.7HUMBLE VORTAC116.6005E
MHFr255/30.5TRINITY VOR/DME113.6007E

 
NDB name  Hdg/Dist  Freq  Var  ID
SANJAC225/17.634705EJPA .--- .--. .-
GALVESTON278/31.120608EGLS --. .-.. ...
NIXIN186/31.432605EBVP -... ...- .--.

Airport Services

Parking: hangars and tiedowns
Airframe service: MAJOR
Powerplant service: MAJOR

Runway Information

Runway 2/20

Dimensions: 2910 x 80 ft. / 887 x 24 m
Surface: turf, in good condition
RUNWAY 2  RUNWAY 20
Latitude: 29-28.529022N29-28.961888N
Longitude: 095-19.711895W095-19.474193W
Elevation: 54.0 ft.53.0 ft.
Traffic pattern: leftleft
Runway heading: 020 magnetic, 026 true200 magnetic, 206 true
Obstructions: 40 ft. trees, 188 ft. from runway, 119 ft. right of centerline, 4:1 slope to clear15 ft. road, 50 ft. from runway, 125 ft. left of centerline, 3:1 slope to clear

Airport Ownership and Management from official FAA records

Ownership: Privately-owned
Owner: WOLFE AIRPARK CIVIC CLUB INC
PO BOX 941
MANVEL, TX 77578
Phone 281-309-1959
JOHN HEITZ, CLUB PRESIDENT; KEN ECKEL VP; DAVE VONTESMAR, TREASURER.
Manager: JOHN HEITZ
8802 BELCHER ROAD
MANVEL, TX 77578
Phone 281-309-1959
FBO: ANGEL AIR SERVICES 281-309-1959.

Airport Operational Statistics

Aircraft based on the field: 75
Single engine airplanes: 74
Multi engine airplanes: 1
    
Aircraft operations: avg 44/day *
80% local general aviation
20% transient general aviation
* for 12-month period ending 31 December 2016

Additional Remarks

DITCH CROSSING RY 20 THLD.
FIRST 400 FT OF RY UNUSABLE AT EACH END DURG WET WEATHER.
FOR CD CTC HOUSTON APCH AT 281-443-5844 TO CNL IFR CALL 281-443-5888.

Instrument Procedures

There are no published instrument procedures at 3T2.

Some nearby airports with instrument procedures:

KLVJ - Pearland Regional Airport (5 nm NE)
KAXH - Houston Southwest Airport (8 nm W)
KHOU - William P Hobby Airport (10 nm N)
KEFD - Ellington Airport (12 nm NE)
T41 - La Porte Municipal Airport (18 nm NE)
KSGR - Sugar Land Regional Airport (19 nm NW)
 
Loc | Ops | Rwys | IFR | FBO | Links
Com | Nav | Svcs | Stats | Notes


 
Area around 3T2 (Wolfe Air Park)
 
Road maps at: MapQuest Bing Google
 
Aerial photo
WARNING: Photo may not be current or correct
Aerial photo of 3T2 (Wolfe Air Park)
Do you have a better or more recent aerial photo of Wolfe Air Park that you would like to share? If so, please send us your photo.

 
Sectional chart

 
Airport distance calculator
Flying to Wolfe Air Park? Find the distance to fly.

From to 3T2

Sunrise and sunset
Times for 22-Jan-2018
 Local
(UTC-6)
 Zulu
(UTC)
Morning civil twilight06:5112:51
Sunrise07:1613:16
Sunset17:5023:50
Evening civil twilight18:1500:15

Current date and time
Zulu (UTC)  22-Jan-2018 11:03:56
Local (UTC-6)  22-Jan-2018 05:03:56
 
METAR
KLVJ 
5nm NE 
221053Z AUTO 25006KT 6SM BR BKN008 BKN014 OVC020 20/20 A2993 RMK AO2 RAB16E47 SLP133 P0015 T02000200
KAXH 
8nm W 
221055Z AUTO 27008KT 7SM OVC009 20/19 A2993 RMK AO2 T01950187
KHOU 
10nm N 
221053Z 27012KT 8SM BKN010 OVC020 20/20 A2991 RMK AO2 RAE10 SLP134 P0000 T02000200
KEFD 
11nm NE 
221050Z 18011KT 7SM BKN010 OVC020 19/19 A2990
KSGR 
19nm NW 
221053Z AUTO 31013G19KT 6SM -RA BR BKN012 BKN021 21/18 A2992 RMK AO2 RAB38 SLP133 P0000 T02060183
TAF
KHOU 
10nm N 
220900Z 2209/2306 22007KT 6SM BR VCSH BKN009 OVC014 FM221200 28008KT P6SM SCT020 BKN035 FM221600 32015G23KT P6SM SCT250 FM230000 31005KT P6SM SKC
KEFD 
11nm NE 
220400Z 2204/2310 18009KT 6000 -SHRA BR OVC007 QNH2989INS TEMPO 2209/2211 26015G25KT 3200 -TSRA BR OVC005CB BECMG 2212/2213 31010G15KT 9999 NSW BKN007 QNH2998INS BECMG 2214/2215 31012G20KT 9999 FEW020 QNH3003INS BECMG 2223/2224 32006KT 9999 SKC QNH3006INS TX20/2204Z TN11/2304Z
KSGR 
19nm NW 
220857Z 2209/2306 23010KT 4SM BR VCSH OVC005 FM221100 24007KT 6SM BR VCSH BKN015 BKN025 FM221300 28008KT P6SM SCT020 BKN035 FM221600 32015G23KT P6SM SCT250 FM230000 31005KT P6SM SKC
NOTAMs
Click for the latest NOTAMs
NOTAMs are issued by the DoD/FAA and will open in a separate window not controlled by AirNav.

 

 
 

Would you like to see your business listed on this page?

 If your business provides an interesting product or service to pilots, flight crews, aircraft, or users of the Wolfe Air Park, you should consider listing it here.  To start the listing process, click on the button below
 
Add a business
 

Other Pages about Wolfe Air Park

Update a link
 
Copyright © AirNav, LLC. All rights reserved. Privacy Policy  Contact